NDF212 EDDB-EGLL

Flight info

Callsign NDF212
Flight time 1h 36m
Altitude 36000
Route SUKIP3Q/06R SUKIP Y206 BUREL P203 HLZ L980 ROBEG DCT ABNED L980 LOGAN
Aircraft A320/M-SDE3FGHIRWY/LB1

Departure

Time 2026-05-06 13:54
Airport Berlin Brandenburg Airport (EDDB)

Arrival

Time 2026-05-06 15:30
Airport London Heathrow Airport (EGLL)
Time Latitude Longitude Altitude Speed Heading
2026-05-06 12:57 52.36175 13.50742 159 ft 0 kts 69°
2026-05-06 13:06 52.36175 13.50741 159 ft 0 kts 69°
2026-05-06 13:10 52.36174 13.50741 159 ft 0 kts 69°
2026-05-06 13:19 52.36174 13.50740 159 ft 0 kts 69°
2026-05-06 13:33 52.36174 13.50739 158 ft 0 kts 69°
2026-05-06 13:35 52.36171 13.50728 158 ft 2 kts 69°
2026-05-06 13:36 52.36165 13.50704 135 ft 2 kts 69°
2026-05-06 13:36 52.36160 13.50679 161 ft 2 kts 69°
2026-05-06 13:36 52.36153 13.50652 158 ft 3 kts 76°
2026-05-06 13:36 52.36150 13.50622 158 ft 3 kts 92°
2026-05-06 13:37 52.36153 13.50591 158 ft 3 kts 122°
2026-05-06 13:37 52.36160 13.50575 158 ft 0 kts 146°
2026-05-06 13:42 52.36136 13.50596 158 ft 7 kts 154°
2026-05-06 13:42 52.36093 13.50624 158 ft 8 kts 159°
2026-05-06 13:42 52.36026 13.50666 158 ft 11 kts 159°
2026-05-06 13:43 52.35960 13.50707 158 ft 9 kts 160°
2026-05-06 13:43 52.35905 13.50738 158 ft 7 kts 160°
2026-05-06 13:43 52.35871 13.50759 158 ft 0 kts 159°
2026-05-06 13:44 52.35853 13.50770 158 ft 6 kts 161°
2026-05-06 13:44 52.35813 13.50772 158 ft 5 kts 176°
2026-05-06 13:44 52.35784 13.50787 158 ft 5 kts 151°
2026-05-06 13:45 52.35755 13.50804 158 ft 4 kts 181°
2026-05-06 13:45 52.35743 13.50692 158 ft 10 kts 308°
2026-05-06 13:45 52.35769 13.50589 158 ft 9 kts 261°
2026-05-06 13:46 52.35746 13.50500 158 ft 8 kts 246°
2026-05-06 13:46 52.35726 13.50421 158 ft 7 kts 248°
2026-05-06 13:46 52.35713 13.50367 158 ft 7 kts 251°
2026-05-06 13:46 52.35695 13.50282 158 ft 9 kts 250°
2026-05-06 13:47 52.35663 13.50156 158 ft 13 kts 248°
2026-05-06 13:47 52.35628 13.49990 158 ft 11 kts 252°
2026-05-06 13:47 52.35604 13.49887 158 ft 9 kts 248°
2026-05-06 13:47 52.35583 13.49800 158 ft 8 kts 248°
2026-05-06 13:48 52.35564 13.49725 158 ft 8 kts 247°
2026-05-06 13:48 52.35551 13.49674 158 ft 7 kts 247°
2026-05-06 13:48 52.35535 13.49609 158 ft 6 kts 248°
2026-05-06 13:48 52.35522 13.49557 158 ft 4 kts 248°
2026-05-06 13:49 52.35497 13.49456 158 ft 15 kts 248°
2026-05-06 13:49 52.35464 13.49307 158 ft 13 kts 249°
2026-05-06 13:49 52.35432 13.49178 158 ft 11 kts 249°
2026-05-06 13:49 52.35406 13.49066 158 ft 10 kts 249°
2026-05-06 13:50 52.35381 13.48961 158 ft 11 kts 249°
2026-05-06 13:50 52.35353 13.48847 158 ft 10 kts 248°
2026-05-06 13:50 52.35318 13.48698 158 ft 15 kts 249°
2026-05-06 13:50 52.35282 13.48550 158 ft 13 kts 248°
2026-05-06 13:51 52.35256 13.48485 158 ft 5 kts 217°
2026-05-06 13:51 52.35226 13.48475 158 ft 4 kts 178°
2026-05-06 13:51 52.35203 13.48486 158 ft 3 kts 162°
2026-05-06 13:51 52.35167 13.48507 158 ft 8 kts 158°
2026-05-06 13:52 52.35111 13.48569 157 ft 11 kts 131°
2026-05-06 13:52 52.35092 13.48686 156 ft 12 kts 97°
2026-05-06 13:52 52.35078 13.48878 154 ft 17 kts 94°
2026-05-06 13:52 52.35074 13.49047 154 ft 11 kts 90°
2026-05-06 13:53 52.35092 13.49154 154 ft 12 kts 69°
2026-05-06 13:53 52.35181 13.49530 156 ft 69 kts 69°
2026-05-06 13:53 52.35428 13.50578 156 ft 125 kts 69°
2026-05-06 13:53 52.35792 13.52140 219 ft 163 kts 68°
2026-05-06 13:54 52.36151 13.53926 776 ft 168 kts 81°
2026-05-06 13:54 52.35808 13.55744 1420 ft 176 kts 133°
2026-05-06 13:54 52.34703 13.56550 1984 ft 184 kts 182°
2026-05-06 13:54 52.33385 13.56171 2349 ft 203 kts 198°
2026-05-06 13:55 52.32058 13.55176 2709 ft 221 kts 217°
2026-05-06 13:55 52.30775 13.53559 3071 ft 245 kts 219°
2026-05-06 13:55 52.29382 13.51762 3603 ft 262 kts 220°
2026-05-06 13:55 52.27949 13.49886 4492 ft 265 kts 224°
2026-05-06 13:56 52.26829 13.47534 5413 ft 263 kts 244°
2026-05-06 13:56 52.26319 13.44698 6419 ft 260 kts 264°
2026-05-06 13:56 52.26288 13.41736 7277 ft 262 kts 269°
2026-05-06 13:56 52.26293 13.38751 8136 ft 264 kts 269°
2026-05-06 13:57 52.26349 13.35785 8979 ft 266 kts 271°
2026-05-06 13:57 52.26481 13.32760 9816 ft 268 kts 272°
2026-05-06 13:57 52.26644 13.29664 10299 ft 284 kts 273°
2026-05-06 13:57 52.26825 13.26322 10510 ft 307 kts 273°
2026-05-06 13:58 52.27016 13.22782 10983 ft 318 kts 273°
2026-05-06 13:58 52.27203 13.19161 11652 ft 322 kts 272°
2026-05-06 13:58 52.27385 13.15486 12340 ft 327 kts 272°
2026-05-06 13:58 52.27566 13.11765 12963 ft 332 kts 272°
2026-05-06 13:59 52.27747 13.07981 13624 ft 337 kts 271°
2026-05-06 13:59 52.27899 13.04144 14238 ft 339 kts 269°
2026-05-06 13:59 52.27950 13.00273 14871 ft 342 kts 268°
2026-05-06 13:59 52.27941 12.96383 15506 ft 344 kts 266°
2026-05-06 14:00 52.27906 12.92459 16194 ft 347 kts 266°
2026-05-06 14:00 52.27865 12.88504 16851 ft 350 kts 266°
2026-05-06 14:00 52.27828 12.84513 17461 ft 353 kts 267°
2026-05-06 14:00 52.27799 12.80498 18072 ft 355 kts 267°
2026-05-06 14:01 52.27777 12.76442 18606 ft 358 kts 267°
2026-05-06 14:01 52.27759 12.72361 19159 ft 361 kts 267°
2026-05-06 14:01 52.27741 12.68251 19712 ft 363 kts 267°
2026-05-06 14:01 52.27723 12.64112 20251 ft 366 kts 267°
2026-05-06 14:02 52.27704 12.60007 20790 ft 368 kts 267°
2026-05-06 14:02 52.27683 12.55814 21314 ft 370 kts 266°
2026-05-06 14:02 52.27660 12.51594 21844 ft 373 kts 266°
2026-05-06 14:02 52.27634 12.47349 22358 ft 375 kts 266°
2026-05-06 14:03 52.27606 12.43075 22873 ft 378 kts 266°
2026-05-06 14:03 52.27579 12.38764 23338 ft 381 kts 266°
2026-05-06 14:03 52.27550 12.34423 23738 ft 383 kts 266°
2026-05-06 14:03 52.27519 12.30055 24142 ft 386 kts 266°
2026-05-06 14:04 52.27484 12.25668 24530 ft 387 kts 266°
2026-05-06 14:04 52.27446 12.21258 24909 ft 389 kts 266°
2026-05-06 14:04 52.27410 12.16830 25291 ft 391 kts 266°
2026-05-06 14:04 52.27370 12.12379 25653 ft 393 kts 265°
2026-05-06 14:05 52.27328 12.07909 26007 ft 395 kts 265°
2026-05-06 14:05 52.27284 12.03420 26371 ft 397 kts 265°
2026-05-06 14:05 52.27236 11.98906 26762 ft 399 kts 265°
2026-05-06 14:05 52.27188 11.94375 27141 ft 400 kts 265°
2026-05-06 14:06 52.27137 11.89811 27481 ft 404 kts 266°
2026-05-06 14:06 52.27085 11.85266 27766 ft 407 kts 266°
2026-05-06 14:06 52.27031 11.80630 28068 ft 410 kts 266°
2026-05-06 14:06 52.26976 11.75971 28376 ft 412 kts 265°
2026-05-06 14:07 52.26917 11.71291 28679 ft 413 kts 265°
2026-05-06 14:07 52.26854 11.66526 28977 ft 415 kts 265°
2026-05-06 14:07 52.26789 11.61868 29265 ft 417 kts 265°
2026-05-06 14:07 52.26724 11.57127 29547 ft 419 kts 265°
2026-05-06 14:08 52.26659 11.52357 29822 ft 421 kts 265°
2026-05-06 14:08 52.26593 11.47579 30047 ft 422 kts 265°
2026-05-06 14:08 52.26522 11.42778 30281 ft 424 kts 265°
2026-05-06 14:08 52.26448 11.37956 30439 ft 427 kts 265°
2026-05-06 14:09 52.26372 11.33097 30605 ft 429 kts 265°
2026-05-06 14:09 52.26293 11.28217 30816 ft 431 kts 265°
2026-05-06 14:09 52.26212 11.23329 31112 ft 430 kts 265°
2026-05-06 14:09 52.26129 11.18458 31409 ft 429 kts 265°
2026-05-06 14:10 52.26043 11.13592 31706 ft 429 kts 265°
2026-05-06 14:10 52.25957 11.08732 32006 ft 428 kts 265°
2026-05-06 14:10 52.25869 11.03888 32290 ft 427 kts 265°
2026-05-06 14:10 52.25778 10.99044 32584 ft 427 kts 265°
2026-05-06 14:11 52.25684 10.94207 32867 ft 426 kts 265°
2026-05-06 14:11 52.25590 10.89391 33195 ft 425 kts 265°
2026-05-06 14:11 52.25494 10.84565 33424 ft 426 kts 265°
2026-05-06 14:11 52.25399 10.79797 33682 ft 426 kts 265°
2026-05-06 14:12 52.25297 10.74907 33941 ft 425 kts 265°
2026-05-06 14:12 52.25194 10.70151 34165 ft 425 kts 265°
2026-05-06 14:12 52.25089 10.65334 34381 ft 425 kts 265°
2026-05-06 14:12 52.24985 10.60513 34588 ft 425 kts 265°
2026-05-06 14:13 52.24881 10.55690 34799 ft 425 kts 265°
2026-05-06 14:13 52.24773 10.50863 34991 ft 425 kts 265°
2026-05-06 14:13 52.24661 10.46041 35176 ft 426 kts 265°
2026-05-06 14:13 52.24549 10.41218 35369 ft 426 kts 265°
2026-05-06 14:14 52.24435 10.36383 35511 ft 427 kts 265°
2026-05-06 14:14 52.24317 10.31545 35672 ft 427 kts 265°
2026-05-06 14:14 52.24194 10.26705 35778 ft 427 kts 265°
2026-05-06 14:14 52.24070 10.21870 35806 ft 426 kts 265°
2026-05-06 14:15 52.23824 10.12229 35806 ft 425 kts 265°
2026-05-06 14:15 52.23566 10.02589 35814 ft 425 kts 265°
2026-05-06 14:16 52.23296 9.92958 35818 ft 425 kts 264°
2026-05-06 14:16 52.23021 9.83318 35824 ft 425 kts 265°
2026-05-06 14:17 52.22742 9.73692 35827 ft 425 kts 265°
2026-05-06 14:17 52.22449 9.64051 35829 ft 425 kts 264°
2026-05-06 14:18 52.22155 9.54477 35818 ft 425 kts 265°
2026-05-06 14:18 52.21862 9.44829 35819 ft 426 kts 264°
2026-05-06 14:19 52.21552 9.35188 35830 ft 426 kts 264°
2026-05-06 14:19 52.21229 9.25548 35837 ft 426 kts 264°
2026-05-06 14:20 52.20901 9.15910 35833 ft 426 kts 264°
2026-05-06 14:20 52.20563 9.06264 35835 ft 426 kts 264°
2026-05-06 14:21 52.20216 8.96630 35839 ft 426 kts 264°
2026-05-06 14:21 52.19869 8.87002 35838 ft 425 kts 264°
2026-05-06 14:22 52.19517 8.77440 35813 ft 426 kts 264°
2026-05-06 14:22 52.19146 8.67802 35818 ft 426 kts 264°
2026-05-06 14:23 52.18775 8.58141 35830 ft 427 kts 264°
2026-05-06 14:23 52.18391 8.48488 35831 ft 427 kts 264°
2026-05-06 14:24 52.17997 8.38836 35849 ft 427 kts 264°
2026-05-06 14:24 52.17594 8.29174 35855 ft 428 kts 264°
2026-05-06 14:25 52.17191 8.19498 35850 ft 428 kts 264°
2026-05-06 14:25 52.16784 8.09812 35850 ft 428 kts 264°
2026-05-06 14:26 52.16354 8.00129 35862 ft 429 kts 264°
2026-05-06 14:26 52.15915 7.90447 35864 ft 429 kts 264°
2026-05-06 14:27 52.15474 7.80758 35873 ft 429 kts 264°
2026-05-06 14:27 52.15028 7.71062 35870 ft 429 kts 264°
2026-05-06 14:28 52.14571 7.61370 35867 ft 429 kts 263°
2026-05-06 14:28 52.14111 7.51741 35868 ft 429 kts 263°
2026-05-06 14:29 52.13634 7.42049 35874 ft 429 kts 263°
2026-05-06 14:29 52.13152 7.32358 35876 ft 429 kts 263°
2026-05-06 14:30 52.12665 7.22669 35873 ft 430 kts 263°
2026-05-06 14:30 52.12168 7.12963 35871 ft 430 kts 263°
2026-05-06 14:31 52.11663 7.03263 35876 ft 430 kts 263°
2026-05-06 14:31 52.11155 6.93592 35875 ft 430 kts 263°
2026-05-06 14:32 52.10630 6.83905 35888 ft 430 kts 263°
2026-05-06 14:32 52.10096 6.74211 35880 ft 430 kts 263°
2026-05-06 14:33 52.09554 6.64516 35869 ft 431 kts 263°
2026-05-06 14:33 52.09012 6.54812 35868 ft 431 kts 263°
2026-05-06 14:34 52.08462 6.45174 35878 ft 431 kts 263°
2026-05-06 14:34 52.07898 6.35457 35888 ft 431 kts 263°
2026-05-06 14:35 52.07325 6.25752 35889 ft 431 kts 263°
2026-05-06 14:35 52.06742 6.16040 35888 ft 432 kts 262°
2026-05-06 14:36 52.06150 6.06333 35893 ft 431 kts 262°
2026-05-06 14:36 52.05556 5.96636 35891 ft 431 kts 262°
2026-05-06 14:37 52.05064 5.88571 35896 ft 431 kts 262°
2026-05-06 14:37 52.04456 5.78873 35897 ft 431 kts 262°
2026-05-06 14:38 52.03833 5.69182 35897 ft 431 kts 262°
2026-05-06 14:38 52.03209 5.59505 35889 ft 431 kts 262°
2026-05-06 14:39 52.02579 5.49829 35890 ft 431 kts 262°
2026-05-06 14:39 52.01940 5.40154 35892 ft 431 kts 262°
2026-05-06 14:40 52.01294 5.30556 35894 ft 431 kts 262°
2026-05-06 14:40 52.00640 5.20898 35894 ft 430 kts 262°
2026-05-06 14:41 51.99977 5.11244 35890 ft 430 kts 262°
2026-05-06 14:41 51.99311 5.01596 35892 ft 430 kts 262°
2026-05-06 14:42 51.98639 4.91953 35888 ft 430 kts 262°
2026-05-06 14:42 51.97948 4.82316 35891 ft 430 kts 262°
2026-05-06 14:43 51.97251 4.72691 35891 ft 430 kts 262°
2026-05-06 14:43 51.96550 4.63075 35892 ft 429 kts 262°
2026-05-06 14:44 51.95842 4.53459 35891 ft 429 kts 262°
2026-05-06 14:45 51.94779 4.39288 35886 ft 430 kts 262°
2026-05-06 14:45 51.94048 4.29669 35880 ft 430 kts 262°
2026-05-06 14:46 51.93311 4.20048 35881 ft 430 kts 262°
2026-05-06 14:46 51.92563 4.10428 35881 ft 430 kts 261°
2026-05-06 14:47 51.91809 4.00807 35890 ft 430 kts 261°
2026-05-06 14:47 51.91055 3.91249 35892 ft 430 kts 261°
2026-05-06 14:48 51.90287 3.81647 35918 ft 430 kts 261°
2026-05-06 14:48 51.89507 3.72067 35926 ft 428 kts 261°
2026-05-06 14:49 51.88727 3.62510 35928 ft 428 kts 261°
2026-05-06 14:49 51.87947 3.52972 35925 ft 427 kts 261°
2026-05-06 14:50 51.87161 3.43437 35928 ft 427 kts 261°
2026-05-06 14:50 51.86359 3.33915 35936 ft 427 kts 261°
2026-05-06 14:51 51.85540 3.24412 35945 ft 427 kts 261°
2026-05-06 14:51 51.84729 3.14915 35946 ft 426 kts 262°
2026-05-06 14:52 51.84085 3.05384 35949 ft 426 kts 263°
2026-05-06 14:52 51.83522 2.95843 35946 ft 426 kts 263°
2026-05-06 14:53 51.82923 2.86304 35947 ft 426 kts 263°
2026-05-06 14:53 51.82285 2.76772 35946 ft 427 kts 263°
2026-05-06 14:54 51.81631 2.67302 35950 ft 427 kts 263°
2026-05-06 14:54 51.80971 2.57774 35950 ft 427 kts 262°
2026-05-06 14:55 51.80311 2.48239 35948 ft 427 kts 263°
2026-05-06 14:55 51.79639 2.38681 35946 ft 428 kts 263°
2026-05-06 14:56 51.78957 2.29123 35466 ft 429 kts 263°
2026-05-06 14:56 51.78604 2.24271 34263 ft 440 kts 263°
2026-05-06 14:56 51.78254 2.19337 33302 ft 442 kts 263°
2026-05-06 14:56 51.77944 2.14398 32457 ft 441 kts 264°
2026-05-06 14:57 51.77663 2.09495 31651 ft 435 kts 264°
2026-05-06 14:57 51.77398 2.04655 30806 ft 430 kts 264°
2026-05-06 14:57 51.77137 1.99880 29988 ft 424 kts 264°
2026-05-06 14:57 51.76870 1.95167 29071 ft 419 kts 263°
2026-05-06 14:58 51.76596 1.90518 28243 ft 413 kts 263°
2026-05-06 14:58 51.76319 1.85943 27618 ft 407 kts 263°
2026-05-06 14:58 51.76039 1.81426 27127 ft 401 kts 263°
2026-05-06 14:58 51.75759 1.76979 26635 ft 395 kts 263°
2026-05-06 14:59 51.75479 1.72603 26176 ft 390 kts 263°
2026-05-06 14:59 51.75203 1.68280 25714 ft 385 kts 263°
2026-05-06 14:59 51.74938 1.64066 25270 ft 380 kts 263°
2026-05-06 14:59 51.74673 1.59845 24810 ft 376 kts 263°
2026-05-06 15:00 51.74407 1.55646 24223 ft 377 kts 263°
2026-05-06 15:00 51.74138 1.51442 23660 ft 376 kts 263°
2026-05-06 15:00 51.73870 1.47238 23030 ft 376 kts 263°
2026-05-06 15:00 51.73603 1.43052 22469 ft 374 kts 264°
2026-05-06 15:01 51.73336 1.38884 21909 ft 373 kts 264°
2026-05-06 15:01 51.73065 1.34735 21350 ft 372 kts 264°
2026-05-06 15:01 51.72791 1.30596 20794 ft 371 kts 264°
2026-05-06 15:01 51.72516 1.26466 20242 ft 370 kts 264°
2026-05-06 15:02 51.72243 1.22371 19760 ft 366 kts 264°
2026-05-06 15:02 51.71970 1.18284 19312 ft 364 kts 264°
2026-05-06 15:02 51.71701 1.14254 18865 ft 361 kts 264°
2026-05-06 15:02 51.71433 1.10242 18391 ft 359 kts 264°
2026-05-06 15:03 51.71164 1.06251 17900 ft 357 kts 264°
2026-05-06 15:03 51.70893 1.02287 17380 ft 355 kts 264°
2026-05-06 15:03 51.70622 0.98367 16723 ft 348 kts 264°
2026-05-06 15:03 51.70355 0.94510 15902 ft 344 kts 264°
2026-05-06 15:04 51.70090 0.90689 15439 ft 342 kts 264°
2026-05-06 15:04 51.69829 0.86943 14977 ft 340 kts 264°
2026-05-06 15:04 51.69565 0.83173 14604 ft 336 kts 264°
2026-05-06 15:04 51.69302 0.79441 14035 ft 332 kts 264°
2026-05-06 15:05 51.69044 0.75824 13550 ft 318 kts 264°
2026-05-06 15:05 51.68795 0.72341 13107 ft 310 kts 265°
2026-05-06 15:05 51.68550 0.68892 12673 ft 309 kts 265°
2026-05-06 15:05 51.68308 0.65461 12244 ft 308 kts 265°
2026-05-06 15:06 51.68067 0.62044 11820 ft 306 kts 265°
2026-05-06 15:06 51.67824 0.58635 11394 ft 305 kts 265°
2026-05-06 15:06 51.67579 0.55246 10966 ft 304 kts 264°
2026-05-06 15:06 51.67336 0.51915 10839 ft 293 kts 264°
2026-05-06 15:07 51.67102 0.48715 10747 ft 282 kts 264°
2026-05-06 15:07 51.66876 0.45641 10360 ft 282 kts 266°
2026-05-06 15:07 51.66643 0.42488 9893 ft 285 kts 266°
2026-05-06 15:07 51.66410 0.39309 9409 ft 287 kts 266°
2026-05-06 15:08 51.66186 0.36131 9098 ft 281 kts 266°
2026-05-06 15:08 51.65992 0.33029 8760 ft 278 kts 267°
2026-05-06 15:08 51.65799 0.29939 8366 ft 276 kts 265°
2026-05-06 15:08 51.65624 0.26865 8027 ft 273 kts 266°
2026-05-06 15:09 51.65458 0.23894 7986 ft 258 kts 265°
2026-05-06 15:09 51.65286 0.21109 7993 ft 242 kts 265°
2026-05-06 15:09 51.65126 0.18444 8000 ft 237 kts 268°
2026-05-06 15:09 51.64951 0.15810 8000 ft 236 kts 266°
2026-05-06 15:10 51.64770 0.13184 8001 ft 236 kts 265°
2026-05-06 15:10 51.64597 0.10555 8001 ft 237 kts 266°
2026-05-06 15:10 51.64435 0.07918 8002 ft 237 kts 267°
2026-05-06 15:10 51.64260 0.05288 8000 ft 237 kts 266°
2026-05-06 15:11 51.64099 0.02651 8002 ft 237 kts 266°
2026-05-06 15:11 51.63943 0.00076 8002 ft 237 kts 266°
2026-05-06 15:11 51.63782 -0.02552 8036 ft 235 kts 266°
2026-05-06 15:11 51.63629 -0.04652 8040 ft 227 kts 265°
2026-05-06 15:12 51.63422 -0.07153 8044 ft 213 kts 266°
2026-05-06 15:12 51.63239 -0.09533 8048 ft 210 kts 266°
2026-05-06 15:12 51.63054 -0.11828 8047 ft 209 kts 266°
2026-05-06 15:12 51.62859 -0.14146 8029 ft 210 kts 266°
2026-05-06 15:13 51.62677 -0.16485 7761 ft 210 kts 264°
2026-05-06 15:13 51.62509 -0.18823 7515 ft 210 kts 266°
2026-05-06 15:13 51.62337 -0.21152 7261 ft 209 kts 266°
2026-05-06 15:13 51.62168 -0.23473 7097 ft 209 kts 266°
2026-05-06 15:14 51.62019 -0.25775 7056 ft 209 kts 266°
2026-05-06 15:14 51.61871 -0.28104 7058 ft 209 kts 266°
2026-05-06 15:14 51.61716 -0.30438 7059 ft 209 kts 266°
2026-05-06 15:14 51.61553 -0.32764 7000 ft 209 kts 266°
2026-05-06 15:15 51.61389 -0.35077 7022 ft 203 kts 266°
2026-05-06 15:15 51.61239 -0.37236 7013 ft 186 kts 267°
2026-05-06 15:15 51.61078 -0.39215 6990 ft 170 kts 266°
2026-05-06 15:15 51.60928 -0.41026 6966 ft 158 kts 265°
2026-05-06 15:16 51.60794 -0.42764 6994 ft 156 kts 266°
2026-05-06 15:16 51.60652 -0.44490 6998 ft 155 kts 266°
2026-05-06 15:16 51.60497 -0.46211 7004 ft 156 kts 266°
2026-05-06 15:16 51.60339 -0.47932 7005 ft 156 kts 264°
2026-05-06 15:17 51.60201 -0.49662 7009 ft 156 kts 270°
2026-05-06 15:17 51.60063 -0.51391 7006 ft 156 kts 266°
2026-05-06 15:17 51.59923 -0.53121 6984 ft 157 kts 263°
2026-05-06 15:17 51.59777 -0.54868 6724 ft 157 kts 267°
2026-05-06 15:18 51.59627 -0.56599 6473 ft 156 kts 266°
2026-05-06 15:18 51.59501 -0.58298 6216 ft 155 kts 267°
2026-05-06 15:18 51.59366 -0.60011 6045 ft 153 kts 265°
2026-05-06 15:18 51.59243 -0.61722 6001 ft 154 kts 266°
2026-05-06 15:19 51.59125 -0.63435 6005 ft 154 kts 266°
2026-05-06 15:19 51.59010 -0.65153 6012 ft 155 kts 266°
2026-05-06 15:19 51.58896 -0.66874 6007 ft 155 kts 266°
2026-05-06 15:19 51.58782 -0.68590 6006 ft 154 kts 267°
2026-05-06 15:20 51.58651 -0.70306 6008 ft 155 kts 266°
2026-05-06 15:20 51.58518 -0.72015 6007 ft 154 kts 269°
2026-05-06 15:20 51.58372 -0.73723 6009 ft 154 kts 265°
2026-05-06 15:20 51.58232 -0.75433 6007 ft 154 kts 267°
2026-05-06 15:21 51.58099 -0.77140 6004 ft 154 kts 265°
2026-05-06 15:21 51.57972 -0.78853 6000 ft 155 kts 266°
2026-05-06 15:21 51.57844 -0.80567 6004 ft 154 kts 266°
2026-05-06 15:21 51.57709 -0.82280 6006 ft 154 kts 266°
2026-05-06 15:22 51.57560 -0.83987 5999 ft 154 kts 266°
2026-05-06 15:22 51.57205 -0.85619 6006 ft 159 kts 240°
2026-05-06 15:22 51.56340 -0.86713 5983 ft 165 kts 193°
2026-05-06 15:22 51.55241 -0.86452 6088 ft 164 kts 142°
2026-05-06 15:23 51.54633 -0.85024 6319 ft 155 kts 90°
2026-05-06 15:23 51.54798 -0.83390 6651 ft 154 kts 73°
2026-05-06 15:23 51.54661 -0.81553 6209 ft 176 kts 110°
2026-05-06 15:23 51.53936 -0.79996 6011 ft 171 kts 143°
2026-05-06 15:24 51.52864 -0.79421 6006 ft 162 kts 174°
2026-05-06 15:24 51.51690 -0.79336 6010 ft 172 kts 180°
2026-05-06 15:24 51.50470 -0.79343 5680 ft 181 kts 180°
2026-05-06 15:24 51.49137 -0.79378 4870 ft 200 kts 180°
2026-05-06 15:25 51.47752 -0.78873 4105 ft 208 kts 147°
2026-05-06 15:25 51.46906 -0.77240 3837 ft 181 kts 100°
2026-05-06 15:25 51.47103 -0.75418 3512 ft 163 kts 53°
2026-05-06 15:25 51.47617 -0.73892 3275 ft 157 kts 75°
2026-05-06 15:26 51.47555 -0.72176 3055 ft 151 kts 88°
2026-05-06 15:26 51.47582 -0.71064 2928 ft 146 kts 83°
2026-05-06 15:26 51.47628 -0.68942 2664 ft 143 kts 85°
2026-05-06 15:26 51.47647 -0.67350 2469 ft 141 kts 83°
2026-05-06 15:27 51.47660 -0.65779 2279 ft 141 kts 83°
2026-05-06 15:27 51.47668 -0.64738 2149 ft 141 kts 83°
2026-05-06 15:27 51.47678 -0.63162 1956 ft 141 kts 84°
2026-05-06 15:27 51.47686 -0.61594 1762 ft 140 kts 84°
2026-05-06 15:28 51.47695 -0.60040 1567 ft 138 kts 85°
2026-05-06 15:28 51.47703 -0.58494 1385 ft 138 kts 84°
2026-05-06 15:28 51.47710 -0.56953 1193 ft 138 kts 83°
2026-05-06 15:28 51.47718 -0.55420 988 ft 137 kts 84°
2026-05-06 15:29 51.47725 -0.53885 795 ft 138 kts 84°
2026-05-06 15:29 51.47732 -0.52347 609 ft 137 kts 87°
2026-05-06 15:29 51.47738 -0.50835 418 ft 137 kts 85°
2026-05-06 15:29 51.47745 -0.49303 240 ft 136 kts 86°
2026-05-06 15:30 51.47750 -0.47796 86 ft 130 kts 85°
2026-05-06 15:30 51.47757 -0.46612 94 ft 81 kts 89°
2026-05-06 15:30 51.47759 -0.45968 87 ft 44 kts 91°
2026-05-06 15:30 51.47758 -0.45538 85 ft 21 kts 102°
2026-05-06 15:31 51.47684 -0.45473 88 ft 11 kts 173°
2026-05-06 15:31 51.47646 -0.45470 85 ft 0 kts 177°
2026-05-06 15:32 51.47611 -0.45469 85 ft 7 kts 179°
2026-05-06 15:32 51.47563 -0.45468 85 ft 6 kts 180°
2026-05-06 15:32 51.47533 -0.45482 88 ft 0 kts 207°
2026-05-06 15:32 51.47532 -0.45483 88 ft 1 kts 207°
2026-05-06 15:33 51.47506 -0.45538 87 ft 8 kts 258°
2026-05-06 15:33 51.47510 -0.45616 90 ft 6 kts 275°
2026-05-06 15:33 51.47512 -0.45715 88 ft 9 kts 272°
2026-05-06 15:33 51.47518 -0.45811 85 ft 9 kts 276°
2026-05-06 15:34 51.47519 -0.45948 85 ft 12 kts 270°
2026-05-06 15:34 51.47520 -0.46076 85 ft 11 kts 270°
2026-05-06 15:34 51.47516 -0.46188 85 ft 10 kts 264°
2026-05-06 15:34 51.47513 -0.46298 85 ft 11 kts 269°
2026-05-06 15:35 51.47516 -0.46427 85 ft 14 kts 271°
2026-05-06 15:35 51.47516 -0.46579 85 ft 13 kts 270°
2026-05-06 15:35 51.47514 -0.46707 85 ft 9 kts 260°
2026-05-06 15:35 51.47478 -0.46762 87 ft 7 kts 184°
2026-05-06 15:36 51.47431 -0.46747 85 ft 9 kts 167°
2026-05-06 15:36 51.47359 -0.46728 85 ft 10 kts 175°
2026-05-06 15:36 51.47281 -0.46725 85 ft 13 kts 179°
2026-05-06 15:36 51.47195 -0.46725 85 ft 12 kts 180°
2026-05-06 15:37 51.47117 -0.46726 85 ft 11 kts 180°
2026-05-06 15:37 51.47049 -0.46719 85 ft 9 kts 163°
2026-05-06 15:37 51.46999 -0.46669 88 ft 10 kts 145°
2026-05-06 15:37 51.46930 -0.46594 85 ft 12 kts 146°
2026-05-06 15:38 51.46866 -0.46525 88 ft 10 kts 146°
2026-05-06 15:38 51.46812 -0.46465 88 ft 9 kts 146°
2026-05-06 15:38 51.46763 -0.46411 87 ft 8 kts 142°
2026-05-06 15:38 51.46747 -0.46339 86 ft 8 kts 90°
2026-05-06 15:39 51.46747 -0.46219 86 ft 12 kts 89°
2026-05-06 15:39 51.46748 -0.46077 87 ft 13 kts 90°
2026-05-06 15:39 51.46764 -0.45997 88 ft 8 kts 40°
2026-05-06 15:39 51.46821 -0.45990 86 ft 9 kts 347°
2026-05-06 15:40 51.46869 -0.46009 85 ft 6 kts 26°
2026-05-06 15:40 51.46894 -0.45954 87 ft 5 kts 54°
2026-05-06 15:40 51.46900 -0.45942 88 ft 0 kts 54°
2026-05-06 15:42 51.46899 -0.45942 88 ft 0 kts 56°